This is the latest recevied weather packets stored in our database for station/object KN6ZYR. If no packets are shown the sender has not sent any weather packets the latest 10 day(s).
| Time | Temp. | Humidity | Pressure | Rain* | Wind** | Luminosity | Snow |
|---|---|---|---|---|---|---|---|
| 1777607977 | 18.33° C | 21% | 1018.5 hPa | 0 mm | - | 0 W/m² | - |
| 1777607673 | 18.33° C | 21% | 1018.2 hPa | 0 mm | - | 0 W/m² | - |
| 1777607370 | 18.33° C | 21% | 1018.3 hPa | 0 mm | - | 0 W/m² | - |
| 1777607066 | 18.89° C | 21% | 1018.3 hPa | 0 mm | - | 0 W/m² | - |
| 1777606762 | 18.33° C | 21% | 1018 hPa | 0 mm | - | 0 W/m² | - |
| 1777606457 | 18.33° C | 21% | 1017.7 hPa | 0 mm | - | 0 W/m² | - |
| 1777606152 | 18.33° C | 22% | 1018 hPa | 0 mm | - | 0 W/m² | - |
| 1777605849 | 18.33° C | 22% | 1017.6 hPa | 0 mm | - | 0 W/m² | - |
| 1777605549 | 18.89° C | 22% | 1017.6 hPa | 0 mm | - | 0 W/m² | - |
| 1777605244 | 18.89° C | 22% | 1017.5 hPa | 0 mm | - | 0 W/m² | - |
| 1777604935 | 18.89° C | 22% | 1017.5 hPa | 0 mm | - | 0 W/m² | - |
| 1777604630 | 19.44° C | 21% | 1017.5 hPa | 0 mm | - | 0 W/m² | - |
| 1777604327 | 20° C | 20% | 1017.5 hPa | 0 mm | - | 0 W/m² | - |
| 1777604027 | 20° C | 20% | 1017.4 hPa | 0 mm | - | 1 W/m² | - |
| 1777603724 | 20° C | 19% | 1017.5 hPa | 0 mm | - | 1 W/m² | - |
| 1777603421 | 20.56° C | 19% | 1017.2 hPa | 0 mm | - | 3 W/m² | - |
| 1777603116 | 20.56° C | 18% | 1017.5 hPa | 0 mm | - | 5 W/m² | - |
| 1777602811 | 21.11° C | 18% | 1017.3 hPa | 0 mm | - | 8 W/m² | - |
| 1777602506 | 21.67° C | 17% | 1017.3 hPa | 0 mm | - | 12 W/m² | - |
| 1777602203 | 21.67° C | 17% | 1017.2 hPa | 0 mm | - | 15 W/m² | - |
| 1777601898 | 21.67° C | 16% | 1017.3 hPa | 0 mm | - | 19 W/m² | - |
| 1777601594 | 22.22° C | 16% | 1017.1 hPa | 0 mm | - | 22 W/m² | - |
| 1777601289 | 22.22° C | 16% | 1017.1 hPa | 0 mm | - | 26 W/m² | - |
| 1777600987 | 22.78° C | 16% | 1017.1 hPa | 0 mm | - | 29 W/m² | - |
| 1777600684 | 22.78° C | 15% | 1017 hPa | 0 mm | - | 32 W/m² | - |
* Rain latest hour (hover to see other rain measurements)
** Current wind speed in m/s (hover to see current wind gust speed)